Погода в Лиховке

Украина / Днепропетровская область     48°40′22″N   33°55′02″E
темп.,
°C
ветер,
м/с
пор.,
м/с
влажн.,
%
обл.,
%
осадки,
мм/ч
давл.,
гПа
погр.,
м
20 июня, вс
вс2000:00+20всв5108198 0.1 1017302
03:00+20всв7157773 0.2 1015482
06:00+18всв7177538 0.0 1015456
09:00+21в81668100 0.0 1015584
12:00+24в8125971 0.0 1015784
15:00+25в810550 0.0 10141222
18:00+25в611670 0.0 10131150
21:00+21всв510801 0.0 1014235
21 июня, пн
пн2100:00+19в488948 0.0 1014180
03:00+18в35890 0.0 1013105
06:00+18всв348748 0.0 1013105
09:00+22в4673100 0.0 1013380
12:00+26в57610 0.0 1012869
15:00+28в56564 0.0 10121270
18:00+28в466625 0.0 1012883
21:00+23в47755 0.0 101396
22 июня, вт
вт2200:00+20вюв338472 1.4 101343
03:00+19св3787100 1.8 1011125
06:00+19всв4883100 0.1 1012184
09:00+21вюв6117298 0.3 1013410
12:00+26вюв7105495 1.1 1013746
15:00+29вюв684820 1.1 10131268
18:00+28вюв47585 0.0 1013445
21:00+23в33690 0.0 101326
23 июня, ср
ср2300:00+21св227946 0.0 101315
03:00+20св368443 0.0 1013119
06:00+19св3586100 0.0 1013129
09:00+23всв5875100 0.0 1013307
12:00+27вюв5106497 0.0 1014615
15:00+29юв695930 0.0 10141041
18:00+29в4665100 0.0 1015668
21:00+23вюв3784100 1.6 1016102
24 июня, чт
чт2400:00+22в227992 0.3 101612
03:00+21всв228285 0.3 101611
06:00+21св3684100 0.0 1016100
09:00+25всв58686 0.0 1016289
12:00+29в5848100 0.0 1016768
15:00+30в5747100 0.0 1016921
18:00+27всв366698 0.0 1017129
21:00+24всв2272100 0.0 101715